Погода в Зыкове

Россия / Кировская область     57°36′03″N   49°38′25″E
темп.,
°C
ветер,
м/с
пор.,
м/с
влажн.,
%
обл.,
%
осадки,
мм/ч
давл.,
гПа
погр.,
м
14 апреля, ср
ср1400:00+4юз349996 0.0 1031103
03:000ююв119755 0.0 103115
06:00+1ю229548 0.0 103041
09:00+5ю2410076 0.0 102991
12:00+7ю249995 0.0 1029128
15:00+8ю359994 0.0 1027184
18:00+6ю119864 0.0 102614
21:00+4ю229452 0.0 102521
15 апреля, чт
чт1500:00+4ю229440 0.0 102423
03:00+4ююз229639 0.0 102321
06:00+5ююз229743 0.0 102231
09:00+11ююз24881 0.0 1021246
12:00+15юз347513 0.0 1020649
15:00+16юз227199 0.1 1019879
18:00+11ссв61089100 1.9 1020317
21:00+6св81592100 12.2 1022480
16 апреля, пт
пт1600:00+5св7138195 1.1 1024591
03:00+4св6137871 1.1 1025608
06:00+3св6137535 0.0 1027637
09:00+6всв710594 0.0 1028791
12:00+9св68460 0.0 10281088
15:00+10св57410 0.0 10281190
18:00+7св37530 0.0 1028166
21:00+4ссв36661 0.0 1029110
17 апреля, сб
сб1700:00+2ссв37715 0.0 1029124
03:00+1ссв33710 0.0 103043
06:00+2с26690 0.0 1030175
09:00+7ссв35520 0.0 1030751
12:00+10с45465 0.0 10291373
15:00+11с46425 0.0 10281666
18:00+9ссз35575 0.0 102899
21:00+5ссз23695 0.0 102849
18 апреля, вс
вс1800:00+4ссз23750 0.0 102843
03:00+2ссз34790 0.0 102979
06:00+3ссз310800 0.0 1029324
09:00+7с57595 0.0 10291046
12:00+7ссв6764100 0.0 10301228
15:00+8с574777 0.0 10301680
18:00+6св59445 0.0 1032543
21:00+2всв310530 0.0 1034258